Home > Weather > Port Harcourt > Past weeks

Flag for Nigeria Weather for the Past 2 Weeks in Port Harcourt, Nigeria

Now
79 °F

Passing clouds.


Feels Like: 81 °F
Forecast: 71 / 98 °F
Wind: 7 mph from Southwest

Location: Malabo/Fernando Poo

Current Time: Feb 9, 2016 at 12:10:14 AM

Latest Report: Feb 8, 2016 at 11:00 PM


Visibility: 5 mi

Pressure: 29.98 "Hg

Humidity: 70%

Dew point: 68 °F

Location of Port HarcourtLocation

Historic Weather in Port Harcourt — Graph

°F

Port Harcourt Temperature Yesterday

Maximum temperature yesterday: 86 °F (at 12:00 PM)
Minimum temperature yesterday: 77 °F (at 9:00 AM)
Average temperature yesterday: 81 °F

High & Low Weather Summary for the Past Weeks

 TemperatureHumidityPressure
High91 °F (Jan 27, 3:00 PM)94% (Jan 26, 1:00 AM)30.01 "Hg (Jan 26, 1:00 AM)
Low70 °F (Jan 30, 7:00 AM)43% (Jan 31, 11:00 AM)29.77 "Hg (Feb 2, 3:00 PM)
Average81 °F75%29.90 "Hg
* Reported Jan 24 10:00 PM — Feb 8 10:00 PM, Port Harcourt, Weather by CustomWeather, © 2016

Note: Actual official high and low records may vary slightly from our data, if they occured in-between our weather recording intervals... More about our weather records

Advertising

Port Harcourt Weather History for the Previous 24 Hours

 ConditionsComfort  
Time TempWeatherWind HumidityBarometerVisibility
10:00 PM
Mon, Feb 8
79 °FPassing clouds.7 mph74%29.98 "Hg5 mi
9:00 PM79 °FPassing clouds.7 mph79%29.95 "Hg4 mi
8:00 PM81 °FPassing clouds.8 mph74%29.95 "Hg4 mi
7:00 PM81 °FPassing clouds.8 mph79%29.92 "Hg4 mi
6:00 PM82 °FPassing clouds.8 mph74%29.89 "Hg4 mi
5:00 PM84 °FPassing clouds.8 mph70%29.89 "Hg4 mi
4:00 PM84 °FPassing clouds.7 mph74%29.92 "Hg4 mi
3:00 PM84 °FPassing clouds.7 mph70%29.92 "Hg5 mi
2:00 PM84 °FPartly sunny.8 mph74%29.95 "Hg5 mi
1:00 PM84 °FPartly sunny.5 mph74%29.98 "HgN/A
12:00 PM86 °FPartly sunny.8 mph66%29.98 "HgN/A
11:00 AM84 °FPartly sunny.2 mph70%30.01 "HgN/A
10:00 AM77 °FLight rain. Partly sunny.2 mph94%30.01 "Hg5 mi
9:00 AM77 °FLight rain. Broken clouds.6 mph89%30.01 "Hg4 mi
8:00 AM79 °FFog.9 mph84%30.01 "Hg3 mi
7:00 AM79 °FFog.6 mph84%29.95 "Hg3 mi
6:00 AM81 °FFog.5 mph84%29.92 "Hg3 mi
5:00 AM81 °FFog.6 mph84%29.89 "Hg2 mi
4:00 AM81 °FFog.7 mph84%29.92 "Hg2 mi
3:00 AM81 °FFog.7 mph84%29.92 "Hg2 mi
2:00 AM81 °FFog.6 mph89%29.92 "Hg2 mi
1:00 AM81 °FFog.7 mph89%29.95 "Hg2 mi
12:00 AM81 °FFog.7 mph89%29.98 "Hg2 mi
Weather by CustomWeather, © 2016

See weather overviewHow to use our weather pages